EW4993 Weather Reports


time (UTC)temp
C
wind
direction
speed
KPH
gust
KPH
rain 1hr
cm
rain 24hr
cm
rain mn
cm
humidity
%
barometer
mb
20260509184502 28 51 0.0 11.3 0.00 0.05 0.05 74 985.1
20260509183047 27 52 0.0 9.7 0.00 0.05 0.05 77 985.3
20260509181550 27 74 1.6 6.4 0.00 0.05 0.05 76 985.4
20260509180044 27 133 0.0 4.8 0.00 0.05 0.05 77 985.6
20260509174541 27 76 4.8 12.9 0.00 0.05 0.05 79 985.6
20260509173039 26 25 8.0 16.1 0.00 0.05 0.05 80 985.8
20260509171536 25 25 6.4 16.1 0.00 0.05 0.05 81 985.9
20260509170039 25 55 11.3 17.7 0.00 0.05 0.05 80 986.0
20260509164536 25 45 14.5 19.3 0.00 0.05 0.05 81 986.2
20260509163035 25 131 0.0 9.7 0.00 0.05 0.05 80 986.2
20260509161534 25 197 4.8 11.3 0.00 0.05 0.05 78 986.2
20260509160036 25 170 8.0 14.5 0.00 0.05 0.05 76 986.0
20260509154530 25 163 6.4 14.5 0.00 0.05 0.05 76 986.0
20260509153040 25 127 4.8 11.3 0.00 0.05 0.05 74 985.8
20260509151528 25 150 0.0 4.8 0.00 0.05 0.05 66 985.6
20260509150006 24 151 0.0 1.6 0.00 0.05 0.05 63 985.6
20260509144521 23 52 3.2 12.9 0.00 0.05 0.05 63 985.7
20260509143108 23 236 12.9 22.5 0.00 0.05 0.05 64 984.5
20260509141547 22 209 6.4 14.5 0.00 0.05 0.05 65 984.4
20260509140028 22 216 4.8 14.5 0.00 0.05 0.05 65 984.5
20260509134545 22 214 6.4 12.9 0.00 0.05 0.05 65 984.8
20260509133017 22 219 6.4 11.3 0.00 0.05 0.05 65 984.7
20260509131513 21 182 3.2 11.3 0.00 0.05 0.05 65 984.5
20260509130058 21 199 6.4 9.7 0.00 0.05 0.05 66 984.3
20260509124551 21 39 0.0 9.7 0.00 0.05 0.05 66 984.6
20260509123034 21 248 8.0 16.1 0.00 0.05 0.05 66 984.3
20260509121543 21 250 4.8 8.0 0.03 0.05 0.05 66 984.6
20260509120014 21 259 1.6 9.7 0.05 0.05 0.05 66 984.9
20260509114527 21 224 0.0 0.0 0.05 0.05 0.05 66 985.3
20260509113056 21 221 0.0 0.0 0.05 0.05 0.05 66 985.8
20260509111605 21 221 0.0 0.0 0.03 0.03 0.03 66 986.1
20260509110036 21 27 0.0 3.2 0.00 0.00 0.00 66 986.3
20260509104543 21 39 0.0 0.0 0.00 0.00 0.00 66 986.3
20260509103017 21 39 0.0 3.2 0.00 0.00 0.00 66 986.5
20260509101517 21 39 1.6 6.4 0.00 0.00 0.00 66 986.3
20260509100059 21 40 0.0 0.0 0.00 0.00 0.00 66 985.6
20260509094604 21 40 0.0 6.4 0.00 0.00 0.00 66 985.6
20260509093041 21 35 6.4 14.5 0.00 0.00 0.00 66 985.7
20260509091542 21 200 0.0 0.0 0.00 0.00 0.00 67 985.1
20260509090023 21 200 0.0 0.0 0.00 0.00 0.00 67 984.9
20260509084524 21 200 0.0 0.0 0.00 0.00 0.00 67 985.1
20260509083002 21 200 0.0 0.0 0.00 0.00 0.00 67 985.2
20260509081502 21 200 0.0 0.0 0.00 0.00 0.00 68 985.2
20260509074550 21 198 0.0 0.0 0.00 0.00 0.00 68 985.5
20260509073056 21 196 0.0 0.0 0.00 0.00 0.00 69 985.9
20260509071556 21 196 0.0 0.0 0.00 0.00 0.00 69 986.1
20260509070049 21 199 0.0 4.8 0.00 0.00 0.00 69 985.8
20260509064601 22 220 3.2 9.7 0.00 0.00 0.00 70 985.8
20260509063047 22 206 4.8 8.0 0.00 0.00 0.00 70 985.8
20260509061547 22 183 0.0 0.0 0.00 0.00 0.00 70 985.6
20260509060044 21 183 0.0 0.0 0.00 0.00 0.00 70 985.8
20260509054529 21 184 0.0 0.0 0.00 0.00 0.00 70 985.0
20260509053025 21 184 0.0 0.0 0.00 0.00 0.00 71 984.8
20260509051507 21 190 0.0 0.0 0.00 0.00 0.00 71 984.5
20260509050006 21 192 0.0 0.0 0.00 0.00 0.00 71 984.7
20260509044548 21 193 0.0 0.0 0.00 0.00 0.00 72 984.7
20260509043047 21 193 0.0 0.0 0.00 0.00 0.00 72 984.8
20260509041548 21 192 0.0 4.8 0.00 0.00 0.00 73 984.9
20260509040029 21 192 1.6 8.0 0.00 0.00 0.00 73 984.7
20260509034508 21 188 4.8 8.0 0.00 0.00 0.00 75 984.6
20260509033006 21 185 0.0 0.0 0.00 0.00 0.00 76 984.6
20260509031546 21 185 1.6 8.0 0.00 0.00 0.00 76 984.4
20260509030046 22 188 3.2 8.0 0.00 0.00 0.00 77 984.2
20260509024525 22 200 4.8 11.3 0.00 0.00 0.00 77 983.9
20260509023027 22 202 4.8 8.0 0.00 0.00 0.00 78 983.9
20260509021504 22 156 0.0 0.0 0.00 0.00 0.00 79 984.0
20260509020005 22 110 0.0 0.0 0.00 0.00 0.00 80 983.7
20260509014548 22 109 0.0 0.0 0.00 0.00 0.00 80 983.6
20260509013054 22 109 0.0 0.0 0.00 0.00 0.00 80 983.6
20260509011554 22 103 0.0 0.0 0.00 0.00 0.00 81 983.5
20260509010051 23 88 0.0 0.0 0.00 0.00 0.00 81 983.5
20260509004544 23 88 0.0 0.0 0.00 0.00 0.00 81 983.5
20260509003043 23 88 0.0 0.0 0.00 0.00 0.00 81 983.6
20260509001542 23 88 0.0 0.0 0.00 0.00 0.00 82 983.6
20260509000041 23 88 0.0 0.0 0.00 0.00 0.00 82 983.6
20260508234524 23 88 6.4 12.9 0.00 0.00 0.00 82 983.6
20260508233021 23 76 6.4 14.5 0.00 0.00 0.00 81 983.8
20260508231559 24 79 4.8 9.7 0.00 0.00 0.00 81 983.7
20260508230059 24 104 3.2 9.7 0.00 0.00 0.00 80 983.7
20260508224537 24 111 4.8 12.9 0.00 0.00 0.00 80 983.7
20260508223035 24 87 1.6 6.4 0.00 0.00 0.00 81 983.8
20260508221515 23 80 3.2 12.9 0.00 0.00 0.00 81 983.8
20260508220023 23 101 3.2 9.7 0.00 0.00 0.00 81 984.0
20260508214556 23 87 4.8 12.9 0.00 0.00 0.00 81 984.0
20260508213053 23 90 8.0 14.5 0.00 0.00 0.00 81 984.0
20260508211538 23 97 6.4 11.3 0.00 0.00 0.00 81 984.5
20260508210031 23 101 0.0 11.3 0.00 0.00 0.00 81 984.7
20260508204510 22 93 6.4 12.9 0.00 0.00 0.00 81 984.8
20260508203006 22 74 1.6 12.9 0.00 0.00 0.00 81 985.3
20260508201549 22 82 4.8 14.5 0.00 0.00 0.00 81 985.5
20260508200104 22 71 4.8 14.5 0.00 0.00 0.00 81 985.5
20260508194533 22 71 6.4 14.5 0.00 0.00 0.00 81 985.6
20260508193022 22 98 3.2 11.3 0.00 0.00 0.00 81 986.0
20260508191504 21 98 3.2 11.3 0.00 0.00 0.00 81 986.2
20260508190104 21 111 0.0 9.7 0.00 0.00 0.00 81 986.4